TimeMST,TemperatureF,Dew PointF,Humidity,Sea Level PressureIn,VisibilityMPH,Wind Direction,Wind SpeedMPH,Gust SpeedMPH,PrecipitationIn,Events,Conditions,WindDirDegrees,DateUTC
12:15 AM,44.6,21.2,39,30.19,10.0,East,4.6,-,N/A,,Clear,80,2013-01-18 07:15:00
12:35 AM,44.6,21.2,39,30.19,10.0,East,4.6,-,N/A,,Clear,80,2013-01-18 07:35:00
12:55 AM,44.6,21.2,39,30.19,10.0,ENE,3.5,-,N/A,,Clear,60,2013-01-18 07:55:00
1:15 AM,42.8,21.2,42,30.19,10.0,Calm,Calm,-,N/A,,Clear,0,2013-01-18 08:15:00
1:35 AM,42.8,23.0,46,30.20,10.0,Calm,Calm,-,N/A,,Clear,0,2013-01-18 08:35:00
1:55 AM,42.8,23.0,46,30.20,10.0,Calm,Calm,-,N/A,,Clear,0,2013-01-18 08:55:00
2:15 AM,44.6,21.2,39,30.20,10.0,Calm,Calm,-,N/A,,Clear,0,2013-01-18 09:15:00
2:35 AM,42.8,21.2,42,30.19,10.0,Calm,Calm,-,N/A,,Clear,0,2013-01-18 09:35:00
2:55 AM,42.8,21.2,42,30.19,10.0,Calm,Calm,-,N/A,,Clear,0,2013-01-18 09:55:00
3:15 AM,42.8,21.2,42,30.18,10.0,Calm,Calm,-,N/A,,Clear,0,2013-01-18 10:15:00
3:35 AM,42.8,21.2,42,30.18,10.0,Calm,Calm,-,N/A,,Clear,0,2013-01-18 10:35:00
3:55 AM,42.8,21.2,42,30.18,10.0,Calm,Calm,-,N/A,,Clear,0,2013-01-18 10:55:00
4:15 AM,42.8,23.0,46,30.18,10.0,Calm,Calm,-,N/A,,Clear,0,2013-01-18 11:15:00
4:35 AM,42.8,21.2,42,30.18,10.0,Calm,Calm,-,N/A,,Clear,0,2013-01-18 11:35:00
4:55 AM,41.0,23.0,49,30.18,10.0,Calm,Calm,-,N/A,,Clear,0,2013-01-18 11:55:00
5:15 AM,41.0,23.0,49,30.18,10.0,Calm,Calm,-,N/A,,Clear,0,2013-01-18 12:15:00
5:47 AM,39.2,21.2,49,30.19,20.0,SSE,4.6,-,N/A,,Clear,160,2013-01-18 12:47:00
6:47 AM,39.2,23.0,52,30.19,20.0,ESE,4.6,-,N/A,,Clear,120,2013-01-18 13:47:00
7:47 AM,37.4,21.2,52,30.21,20.0,ESE,3.5,-,N/A,,Clear,110,2013-01-18 14:47:00
8:52 AM,42.8,24.8,49,30.24,45.0,Calm,Calm,-,N/A,,Scattered Clouds,0,2013-01-18 15:52:00
9:48 AM,53.6,26.6,35,30.24,45.0,Calm,Calm,-,N/A,,Scattered Clouds,0,2013-01-18 16:48:00
10:58 AM,60.8,24.8,25,30.24,35.0,Calm,Calm,-,N/A,,Scattered Clouds,0,2013-01-18 17:58:00
11:47 AM,66.2,19.4,17,30.21,35.0,NNW,3.5,-,N/A,,Partly Cloudy,330,2013-01-18 18:47:00
12:47 PM,68.0,19.4,16,30.17,35.0,NNE,3.5,-,N/A,,Partly Cloudy,20,2013-01-18 19:47:00
1:47 PM,71.6,19.4,14,30.14,35.0,North,3.5,-,N/A,,Partly Cloudy,360,2013-01-18 20:47:00
2:47 PM,73.4,19.4,13,30.12,35.0,Variable,3.5,-,N/A,,Scattered Clouds,0,2013-01-18 21:47:00
3:47 PM,73.4,19.4,13,30.12,35.0,Calm,Calm,-,N/A,,Scattered Clouds,0,2013-01-18 22:47:00
4:47 PM,73.4,19.4,13,30.11,35.0,Calm,Calm,-,N/A,,Scattered Clouds,0,2013-01-18 23:47:00
5:47 PM,68.0,19.4,16,30.11,20.0,West,3.5,-,N/A,,Scattered Clouds,260,2013-01-19 00:47:00
6:47 PM,62.6,23.0,22,30.12,20.0,Calm,Calm,-,N/A,,Scattered Clouds,0,2013-01-19 01:47:00
7:47 PM,60.8,21.2,22,30.13,20.0,Variable,3.5,-,N/A,,Scattered Clouds,0,2013-01-19 02:47:00
7:55 PM,57.2,23.0,27,30.13,10.0,East,5.8,-,N/A,,Clear,80,2013-01-19 02:55:00
8:15 PM,53.6,23.0,30,30.13,10.0,ENE,5.8,-,N/A,,Clear,60,2013-01-19 03:15:00
8:35 PM,51.8,23.0,33,30.14,10.0,East,4.6,-,N/A,,Clear,80,2013-01-19 03:35:00
8:47 PM,53.6,24.8,33,30.14,20.0,Variable,4.6,-,N/A,,Scattered Clouds,0,2013-01-19 03:47:00
8:55 PM,51.8,26.6,38,30.14,10.0,ESE,3.5,-,N/A,,Clear,120,2013-01-19 03:55:00
9:15 PM,46.4,26.6,46,30.14,10.0,ESE,4.6,-,N/A,,Clear,120,2013-01-19 04:15:00
9:35 PM,46.4,26.6,46,30.14,10.0,SE,3.5,-,N/A,,Clear,130,2013-01-19 04:35:00
9:55 PM,48.2,26.6,43,30.14,10.0,SE,5.8,-,N/A,,Clear,130,2013-01-19 04:55:00
10:15 PM,50.0,28.4,43,30.14,10.0,ESE,5.8,-,N/A,,Clear,110,2013-01-19 05:15:00
10:35 PM,46.4,26.6,46,30.15,10.0,ESE,5.8,-,N/A,,Clear,120,2013-01-19 05:35:00
10:55 PM,46.4,26.6,46,30.15,10.0,SE,4.6,-,N/A,,Clear,130,2013-01-19 05:55:00
11:15 PM,46.4,26.6,46,30.15,10.0,ESE,5.8,-,N/A,,Clear,120,2013-01-19 06:15:00
11:35 PM,46.4,26.6,46,30.14,10.0,ESE,4.6,-,N/A,,Clear,110,2013-01-19 06:35:00
11:55 PM,44.6,26.6,49,30.15,10.0,SE,4.6,-,N/A,,Clear,130,2013-01-19 06:55:00